{"data":{"norad_id":68580,"intl_designator":"2026-072H","name":"KUIPER-00231","alt_names":[],"object_type":"PAYLOAD","status":"ACTIVE","operator":null,"country":"US","launch_date":"2026-04-04","launch_site_code":"AFETR","launch_vehicle":null,"mission":null,"orbit_class":"UNKNOWN","rcs_meters":null,"size_class":null,"mass_kg":null,"dimensions":null,"purposes":[],"wikipedia_slug":null,"has_3d_model":false,"image_url":null,"decayed_at":null,"tle_current":{"epoch":"2026-09-20T04:01:19.077024Z","epoch_age_seconds":95151,"freshness":"FRESH","line1":"1 68580U 26072H   26263.16758191  .00001849  00000+0  27151-3 0  9991","line2":"2 68580  51.8982 108.2209 0002046 114.8871 245.2304 14.79930319 25560","mean_motion":14.79930319,"eccentricity":0.0002046,"inclination_deg":51.8982,"raan_deg":108.2209,"arg_perigee_deg":114.8871,"mean_anomaly_deg":245.2304,"bstar":0.00027151,"rev_number":2556,"period_min":97.30187844067,"perigee_km":628.1103208889,"apogee_km":630.97786399193,"semimajor_km":7007.6810924404,"source":"CELESTRAK","updated_at":"2026-09-20T09:00:24.319872Z"}}}